Volver al catálogo

STARLINK-6353

ActivoComunicacionesVLEO
NORAD 57056·PAYLOAD·🇺🇸 United States

Lanzado Jun 22, 2023 desde Vandenberg Space Force Base

Loading…

Próximos Pases (próximas 24 horas)

TLE

ActualizadoSource: CelesTrak SupGP

Época: Sep 15, 2026, 03:07 UTC

1 57056C 23088J   26258.13034722  .00045346  00000+0  16426-2 0  2589
2 57056  43.0001 120.4939 0001716 260.4251 275.2324 15.27551370    18

Sigue STARLINK-6353 en tiempo real con AllMySat

Download on the App Store